Notices

What's New in latest Release from April 7th, 2021:

- Updated Glossary, including Speed of Maximum Gust, and Total Hourly Precipitation

- Updated national and regional climate services offices contacts and prices information

- Addition of station inventory lists for 1981-2010, 1971-2000, and 1961-1990 Normals.

If you haven't already, please take our survey and provide feedback about our website: https://eccc.sondage-survey.ca/f/LanguageSelection.aspx?s=442ca660-fcf1-47c0-95a9-59707d6fd709

Hourly Data Report for March 21, 2021

NANAIMO A
BRITISH COLUMBIA
Current Station Operator: NAVCAN

49°03'16.000" N
123°52'12.000" W
28.00 m
1025365
YCD

Download Data

Hourly Data (March 2021)
Hourly Data Report for March 21, 2021
TIME
LST
Temp Definition
°C
Dew Point Definition
°C
Rel Hum Definition
%
Precip. Amount Definition
mm

Wind Dir Definition
10's deg

Wind Spd Definition
km/h
Visibility Definition
km
Stn Press Definition
kPa
Hmdx Definition


Wind Chill Definition


Weather Definition


00:00 5.0 1.9 81 LegendMM 22 8 LegendMM 102.19     LegendNANA
01:00 4.6 1.9 83 LegendMM 24 8 LegendMM 102.22     LegendNANA
02:00 3.8 2.6 92 LegendMM 27 3 LegendMM 102.23     LegendNANA
03:00 2.9 2.4 97 LegendMM 21 3 LegendMM 102.19     LegendNANA
04:00 3.2 2.5 95 LegendMM 23 1 LegendMM 102.19     LegendNANA
05:00 3.0 2.7 98 LegendMM 0 1 LegendMM 102.17     LegendNANA
06:00 3.1 2.8 97 LegendMM 19 3 LegendMM 102.14     LegendNANA
07:00 3.5 3.1 97 LegendMM 28 4 LegendMM 102.13     LegendNANA
08:00 3.8 3.2 96 LegendMM 27 4 LegendMM 102.10     LegendNANA
09:00 5.3 2.7 83 LegendMM 15 7 LegendMM 102.05     LegendNANA
10:00 5.9 2.9 81 LegendMM 15 11 LegendMM 102.02     LegendNANA
11:00 6.5 2.4 75 LegendMM 15 13 LegendMM 101.96     LegendNANA
12:00 7.1 2.8 74 LegendMM 14 21 LegendMM 101.89     LegendNANA
13:00 6.9 3.1 77 LegendMM 15 22 LegendMM 101.80     LegendNANA
14:00 7.6 3.3 74 LegendMM 15 21 LegendMM 101.68     LegendNANA
15:00 7.9 3.5 74 LegendMM 14 17 LegendMM 101.57     LegendNANA
16:00 8.3 3.9 74 LegendMM 16 17 LegendMM 101.49     LegendNANA
17:00 7.7 3.2 73 LegendMM 16 15 LegendMM 101.41     LegendNANA
18:00 5.9 3.4 84 LegendMM 15 26 LegendMM 101.20     LegendNANA
19:00 5.7 2.7 81 LegendMM 14 19 LegendMM 101.18     LegendNANA
20:00 5.1 3.5 89 LegendMM 13 20 LegendMM 101.17     LegendNANA
21:00 4.5 3.3 92 LegendMM 13 14 LegendMM 101.11     LegendNANA
22:00 4.0 3.6 97 LegendMM 30 7 LegendMM 101.10     LegendNANA
23:00 2.2 2.1 99 LegendMM 4 8 LegendMM 101.10     LegendNANA

Notes on Data Quality.

Legend

  • E = Estimated
  • M = Missing
  • NA = Not Available*
  • [empty] = Indicates an unobserved value
Date modified: